Regional Weather Roundup
Issued by NWS

Home | Current Version | Previous Version | Graphics & Text | Print | Product List | Glossary On
Versions: 1 2 3 4 5 6 7 8 9 10 11 12 13 14 15 16 17 18 19 20 21 22 23 24 25 26 27 28 29 30 31 32 33 34 35 36 37 38 39 40 41 42 43 44 45 46 47 48 49 50
000
ASUS43 KDMX 311107
RWRIA

WEATHER ROUNDUP FOR IOWA
NATIONAL WEATHER SERVICE DES MOINES IA
600 AM CDT FRI JUL 31 2015

NOTE: "FAIR" INDICATES FEW OR NO CLOUDS BELOW 12,000 FEET WITH NO
SIGNIFICANT WEATHER AND/OR OBSTRUCTIONS TO VISIBILITY.

* - THESE STATIONS ARE NOT NWS STATIONS...THUS NOT UNDER NWS
QUALITY CONTROL.  THEY ALSO DO NOT REPORT WEATHER SUCH
AS PRECIPITATION OR FOG.

IAZ001>003-012>014-020>022-031>034-043>046-311200-
   NORTHWEST IOWA

CITY           SKY/WX    TMP DP  RH WIND       PRES   REMARKS
CARROLL *      CLEAR     68  64  88 W8        30.12S
CHEROKEE *     PTCLDY    64  64 100 CALM      30.14R
DENISON *      CLEAR     64  63  94 CALM      30.11F
LE MARS *      CLEAR     64  64 100 CALM      30.14S
ORANGE CITY *  PTCLDY    64  63  94 CALM      30.14S
SHELDON *      PTCLDY    59  57  94 CALM      30.13S
SIOUX CITY     CLEAR     68  61  78 NE5       30.12R
SPENCER          N/A     60  57  89 SW6       30.13S
STORM LAKE *   CLEAR     63  63 100 CALM      30.15S
$$

IAZ055>058-069>071-079>083-090>094-311200-
   SOUTHWEST IOWA

CITY           SKY/WX    TMP DP  RH WIND       PRES   REMARKS
ATLANTIC *     PTCLDY    68  66  94 S5        30.13F
AUDUBON *      CLEAR     66  63  88 CALM      30.15S
CLARINDA *     PTCLDY    66  66 100 CALM      30.19R
COUNCIL BLFS *   N/A     70  64  83 SW12G18   30.13F
CRESTON *      CLOUDY    70  64  83 SW9       30.15F
HARLAN  *      CLEAR     66  66 100 N3        30.16F
LAMONI           N/A     72  63  73 SW9       30.14S
RED OAK *      LGT RAIN  68  66  94 SW6       30.16F
SHENANDOAH *   PTCLDY    68  64  88 CALM      30.18R
$$

IAZ047>049-059>061-072>074-084-311200-
   CENTRAL IOWA

CITY           SKY/WX    TMP DP  RH WIND       PRES   REMARKS
AMES           CLEAR     67  63  87 NW8G20    30.13R
ANKENY *       CLEAR     70  64  83 W9        30.11R
CHARITON *     CLEAR     68  63  83 W7        30.13R
DES MOINES     MOCLDY    69  63  81 SW5       30.11R
GRINNELL*      CLEAR     66  63  88 W6        30.11R
KNOXVILLE *    CLEAR     68  63  83 W6        30.10S
MARSHALLTOWN   CLEAR     63  61  93 W6        30.10R
PELLA *        PTCLDY    68  66  94 W3        30.11S
PERRY *          N/A     66  64  94 W6        30.12R
$$

IAZ004>006-015-016-023>025-035-036-311200-
   NORTH CENTRAL IOWA

CITY           SKY/WX    TMP DP  RH WIND       PRES   REMARKS
ALGONA *       MOCLDY    63  61  94 W3        30.12S
CLARION *      CLOUDY    61  59  94 CALM      30.11S
ESTHERVILLE    CLOUDY    61  59  93 W7        30.12S
FORT DODGE *   MOCLDY    64  61  88 SW3       30.13S
MASON CITY     CLEAR     63  61  93 W8        30.11S
FOREST CITY *  CLEAR     59  59 100 CALM      30.11S
IOWA FALLS *     N/A     63  61  94 W3        30.12S
$$

IAZ007>011-017>019-026>030-037>042-050>054-066-311200-
   NORTHEAST IOWA

CITY           SKY/WX    TMP DP  RH WIND       PRES   REMARKS
CEDAR RAPIDS   CLEAR     64  64 100 W5        30.07S
CHARLES CITY * CLEAR     64  64 100 W6        30.09R
CLINTON *      CLEAR     63  63 100 W7        30.07S
DECORAH *      PTCLDY    63  63 100 SW5       30.06R
DUBUQUE        CLEAR     67  65  93 W12       30.06R
MONTICELLO *   PTCLDY    66  64  94 W5        30.06R
OELWEIN *        N/A     64  64 100 W5        30.09R
WATERLOO       CLEAR     66  64  93 W6        30.07S
$$

IAZ064-065-067-068-078-311200-
   EAST CENTRAL IOWA

CITY           SKY/WX    TMP DP  RH WIND       PRES   REMARKS
DAVENPORT      CLEAR     65  62  90 SW7       30.06F
IOWA CITY      CLEAR     66  63  90 W3        30.09R
MT. PLEASANT * CLEAR     64  61  88 SW5       30.10S
MUSCATINE *    CLEAR     68  63  83 W5        30.07F
QUAD CITIES    CLEAR     66  62  87 SW6       30.06S
$$

IAZ062-063-075>077-085>089-095>099-311200-
   SOUTHEAST IOWA

CITY           SKY/WX    TMP DP  RH WIND       PRES   REMARKS
BURLINGTON     CLEAR     68  65  90 W5        30.09S
FAIRFIELD *    CLEAR     66  63  88 W6        30.10S
FORT MADISON * CLEAR     68  64  88 W6        30.11S
KEOKUK *       PTCLDY    68  64  88 W7        30.10S
OSKALOOSA *      N/A     64  63  94 W6        30.10S
CENTERVILLE *  MOCLDY    66  63  88 SW6       30.14S
OTTUMWA        CLEAR     66  63  90 W6        30.08F
WASHINGTON *   CLEAR     66  64  94 W7        30.10S
$$

ABBREVIATIONS USED IN REMARKS
   TC - TEMPERATURES IN CELSIUS
  WCI - WIND CHILL INDEX
   HX - HEAT INDEX
  VSB - VISIBILITY
$$




USA.gov is the U.S. government's official web portal to all federal, state and local government web resources and services.